Weather History for KFCM - October, 2010

Change the Weather History Date:

Wednesday, October 27, 2010

  Actual Average Record
Temperature  
Mean Temperature 38 °F -  
Max Temperature 42 °F 51 °F 73 °F (1999)
Min Temperature 35 °F 35 °F 18 °F (1997)
Degree Days  
Heating Degree Days 26    
Moisture  
Dew Point 34 °F    
Average Humidity 80    
Maximum Humidity 93    
Minimum Humidity 58    
Precipitation  
Precipitation 0.05 in - - ()
Sea Level Pressure  
Sea Level Pressure 29.33 in    
Wind  
Wind Speed 22 mph (West)    
Max Wind Speed 29 mph    
Max Gust Speed 47 mph    
Visibility 8 miles    
Events Rain , Snow    
Averages and records for this station are not official NWS values.
T = Trace of Precipitation, MM = Missing Value Source: NWS Daily Summary

Daily Weather History Graph

Daily Weather History Graph

Search for Another Location

Airport or City:

Trip Planner

Search our weather history database for the weather conditions in past years. The results will help you decide how hot, cold, wet, or windy it might be!

Date:

Astronomy

Oct. 27, 2010 Rise Set
Actual Time 7:45 AM CDT 6:09 PM CDT
Civil Twilight 7:15 AM CDT 6:39 PM CDT
Nautical Twilight 6:40 AM CDT 7:13 PM CDT
Astronomical Twilight 6:06 AM CDT 7:47 PM CDT
Moon 9:24 PM CDT (10/27) 12:29 PM CDT (10/27)
Length of Visible Light 11h 24m
Length of Day
10h 24m
Waning Gibbous, 79% of the Moon is Illuminated
Oct 27
Waning Gibbous
Oct 30
Last Quarter
Nov 5
New
Nov 13
First Quarter
Nov 21
Full

Hourly Weather History & Observations

Time (CDT) Temp. Windchill Dew Point Humidity Pressure Visibility Wind Dir Wind Speed Gust Speed Precip Events Conditions
12:53 AM 42.1 °F 32.6 °F 30.0 °F 62% 29.01 in 10.0 mi WSW 23.0 mph 35.7 mph N/A   Overcast
1:53 AM 42.1 °F 31.5 °F 28.0 °F 58% 29.02 in 10.0 mi West 28.8 mph 47.2 mph N/A   Overcast
2:53 AM 41.0 °F 32.2 °F 28.9 °F 62% 29.05 in 10.0 mi WSW 18.4 mph 32.2 mph N/A   Overcast
3:53 AM 39.9 °F 29.0 °F 28.0 °F 63% 29.04 in 10.0 mi WSW 26.5 mph 39.1 mph N/A   Overcast
4:53 AM 39.9 °F 30.2 °F 27.0 °F 60% 29.05 in 10.0 mi WSW 20.7 mph 41.4 mph N/A   Overcast
5:53 AM 37.0 °F 25.4 °F 30.0 °F 76% 29.08 in 7.0 mi WSW 25.3 mph 38.0 mph 0.00 in Snow Light Snow
6:53 AM 35.1 °F 23.0 °F 32.0 °F 89% 29.09 in 3.0 mi WSW 24.2 mph 41.4 mph 0.00 in Snow Light Snow
7:11 AM 35.6 °F 24.5 °F 33.8 °F 93% 29.08 in 3.0 mi WSW 20.7 mph 35.7 mph 0.01 in Snow Light Snow
7:53 AM 35.1 °F 23.3 °F 32.0 °F 89% 29.11 in 7.0 mi WSW 23.0 mph 35.7 mph 0.01 in Snow Light Snow
8:53 AM 35.1 °F 23.3 °F 33.1 °F 92% 29.14 in 10.0 mi SW 23.0 mph 36.8 mph 0.00 in Rain Light Rain
9:51 AM 35.6 °F 25.5 °F 33.8 °F 93% 29.15 in 10.0 mi WSW 17.3 mph 38.0 mph 0.00 in Rain Light Rain
9:53 AM 36.0 °F 25.0 °F 33.1 °F 89% 29.17 in 10.0 mi WSW 20.7 mph 33.4 mph 0.00 in Rain Light Rain
10:53 AM 37.9 °F 27.6 °F 33.1 °F 83% 29.18 in 10.0 mi WSW 20.7 mph 33.4 mph 0.00 in Rain Light Rain
11:53 AM 39.0 °F 28.5 °F 34.0 °F 82% 29.22 in 10.0 mi WSW 23.0 mph 34.5 mph 0.00 in Rain Light Rain
12:53 PM 39.9 °F 31.1 °F 36.0 °F 86% 29.25 in 5.0 mi WSW 17.3 mph 31.1 mph 0.01 in Rain Light Rain
1:53 PM 41.0 °F 32.8 °F 37.0 °F 86% 29.29 in 10.0 mi WSW 16.1 mph 28.8 mph 0.02 in Rain Light Rain
2:48 PM 39.2 °F 30.2 °F 37.4 °F 93% 29.32 in 4.0 mi WSW 17.3 mph 27.6 mph 0.00 in Rain Light Rain
2:53 PM 39.9 °F 31.1 °F 37.9 °F 93% 29.34 in 4.0 mi WSW 17.3 mph 26.5 mph 0.00 in Rain Light Rain
3:14 PM 41.0 °F 32.8 °F 37.4 °F 87% 29.34 in 3.0 mi West 16.1 mph 27.6 mph 0.00 in Rain Light Rain
3:22 PM 41.0 °F 31.9 °F 37.4 °F 87% 29.35 in 3.0 mi West 19.6 mph 29.9 mph 0.00 in Rain Light Rain
3:53 PM 41.0 °F 32.5 °F 37.9 °F 89% 29.40 in 5.0 mi West 17.3 mph 26.5 mph 0.00 in Rain Light Rain
4:08 PM 41.0 °F 32.5 °F 37.4 °F 87% 29.40 in 7.0 mi West 17.3 mph 27.6 mph 0.00 in Rain Light Rain
4:40 PM 41.0 °F 31.9 °F 37.4 °F 87% 29.43 in 5.0 mi West 19.6 mph 32.2 mph 0.01 in Rain Light Rain
4:53 PM 41.0 °F 32.8 °F 37.9 °F 89% 29.46 in 6.0 mi West 16.1 mph 27.6 mph 0.01 in Rain Light Rain
5:53 PM 42.1 °F 33.9 °F 36.0 °F 79% 29.50 in 10.0 mi West 17.3 mph 35.7 mph 0.00 in   Overcast
6:53 PM 42.1 °F 32.6 °F 34.0 °F 73% 29.57 in 10.0 mi West 23.0 mph 33.4 mph N/A   Overcast
7:53 PM 42.1 °F 32.6 °F 34.0 °F 73% 29.62 in 10.0 mi WNW 23.0 mph 32.2 mph 0.00 in   Overcast
8:53 PM 41.0 °F 32.2 °F 33.1 °F 73% 29.69 in 10.0 mi West 18.4 mph 33.4 mph N/A   Overcast
9:41 PM 41.0 °F 30.5 °F 33.8 °F 76% 29.70 in 10.0 mi WNW 26.5 mph 36.8 mph N/A   Overcast
9:53 PM 41.0 °F 31.6 °F 32.0 °F 70% 29.74 in 10.0 mi WNW 20.7 mph 34.5 mph N/A   Overcast
10:53 PM 41.0 °F 30.9 °F 32.0 °F 70% 29.78 in 10.0 mi WNW 24.2 mph 36.8 mph N/A   Overcast
11:53 PM 39.9 °F 30.8 °F 32.0 °F 73% 29.83 in 10.0 mi WNW 18.4 mph 28.8 mph N/A   Overcast